Regional Weather Roundup
Issued by NWS

Home | Current Version | Previous Version | Graphics & Text | Print | Product List | Glossary On
Versions: 1 2 3 4 5 6 7 8 9 10 11 12 13 14 15 16 17 18 19 20 21 22 23 24 25 26 27 28 29 30 31 32 33 34 35 36 37 38 39 40 41 42 43 44 45 46 47 48 49 50
000
ASUS45 KCYS 021810
RWRWY

WYOMING REGIONAL WEATHER ROUNDUP
NATIONAL WEATHER SERVICE CHEYENNE WY
1200 PM MDT TUE JUN 02 2015

NOTE:  "FAIR" INDICATES FEW OR NO CLOUDS BELOW 12,000 FEET
WITH NO SIGNIFICANT WEATHER AND/OR OBSTRUCTIONS TO VISIBILITY.

WYZ001-021900-
...YELLOWSTONE NATIONAL PARK...

CITY           SKY/WX    TMP DP  RH WIND       PRES   REMARKS
LK YELLOWSTONE   N/A     54  39  57 NW12G20   30.13S
6HR MIN TEMP:  30; 6HR MAX TEMP:  54;

W YELLOWSTONE  NOT AVBL

$$
WYZ002>013-054>058-071-098>099-021900-
...NORTHERN WYOMING...

CITY           SKY/WX    TMP DP  RH WIND       PRES   REMARKS
JACKSON        MOSUNNY   57  46  67 S5        30.07F
CODY           MOSUNNY   73  36  25 SW7       29.92F
GREYBULL       MOSUNNY   71  49  45 S5        29.89F
6HR MIN TEMP:  50; 6HR MAX TEMP:  71;

WORLAND        MOSUNNY   73  51  46 N6        29.90F
6HR MIN TEMP:  49; 6HR MAX TEMP:  73;

SHERIDAN       SUNNY     70  52  52 NW6       29.90F
6HR MIN TEMP:  48; 6HR MAX TEMP:  71;

BUFFALO        SUNNY     69  49  48 N6        29.94S
6HR MIN TEMP:  50; 6HR MAX TEMP:  71;

GILLETTE       SUNNY     72  51  47 MISG      29.90S
6HR MIN TEMP:  53; 6HR MAX TEMP:  73;

HULETT         FAIR      72  52  49 W5        29.91S
NEWCASTLE      FAIR      75  45  33 MISG      29.89F

$$
WYZ014>020-022>026-101>103-021900-
...CENTRAL WYOMING...

CITY           SKY/WX    TMP DP  RH WIND       PRES   REMARKS
BIG PINEY      MOSUNNY   64  40  41 SE6       30.07F
6HR MIN TEMP:  37; 6HR MAX TEMP:  64;

PINEDALE       SUNNY     63  32  31 CALM      30.08S
DUBOIS         FAIR      63  30  29 N14       30.04F
LANDER         SUNNY     70  46  42 SE6       29.95F
6HR MIN TEMP:  48; 6HR MAX TEMP:  70;

RIVERTON       SUNNY     70  41  34 VRB3      29.96F
6HR MIN TEMP:  47; 6HR MAX TEMP:  70;

CASPER         SUNNY     76  47  35 SW6       29.94F
6HR MIN TEMP:  49; 6HR MAX TEMP:  76;

DOUGLAS        SUNNY     76  51  41 VRB5      29.92F
6HR MIN TEMP:  52; 6HR MAX TEMP:  76;


$$
WYZ021-027>030-104>119-021900-
...SOUTHERN WYOMING...

CITY           SKY/WX    TMP DP  RH WIND       PRES   REMARKS
EVANSTON       SUNNY     69  33  26 SW15G23   30.08F
6HR MIN TEMP:  48; 6HR MAX TEMP:  69;

KEMMERER       SUNNY     68  36  30 W5G16     30.09F
FORT BRIDGER   SUNNY     72  32  23 W9G18     30.10F
ROCK SPRINGS   SUNNY     70  30  22 W13       30.06F
6HR MIN TEMP:  47; 6HR MAX TEMP:  70;

DIXON          FAIR      75  30  19 SW15G25   30.08F
RAWLINS        SUNNY     73  38  27 W21G30    30.05S
6HR MIN TEMP:  48; 6HR MAX TEMP:  73;

SARATOGA       FAIR      73  27  17 W20G29    30.07F
LARAMIE        PTSUNNY   71  28  20 W18G24    30.07S
6HR MIN TEMP:  41; 6HR MAX TEMP:  74;

CHEYENNE       PTSUNNY   79  45  29 N9        29.97F
6HR MIN TEMP:  48; 6HR MAX TEMP:  80;

TORRINGTON     SUNNY     78  62  57 SE7       29.87F
6HR MIN TEMP:  54; 6HR MAX TEMP:  78;

PINE BLUFFS    FAIR      72  55  56 W3        29.95F

$$



USA.gov is the U.S. government's official web portal to all federal, state and local government web resources and services.